Location: Unspecified
(49.2170°N, 0.0000°E)
Time: 13:43:53
(UTC+00:00)

Transit 4A - Pass Details

Date: 24 June 2019
Orbit: 863 x 981 km, 66.8° (Epoch: 20 August)

Event Time Altitude Azimuth Distance (km) Brightness Sun altitude
Rises 05:49:40 0° 147° (SSE) 3,614 11.2 15.5°
Reaches altitude 10° 05:54:29 10° 114° (ESE) 2,702 11.2 16.3°
Maximum altitude 05:56:06 11° 98° (E) 2,635 11.7 16.5°
Drops below altitude 10° 05:57:44 10° 83° (E) 2,721 12.6 16.8°
Sets 06:02:37 0° 51° (NE) 3,689 12.3 17.6°
